Probability
0 0 0 0 0 0 0 0 0 0 0 0 0 0 0 0 0 0 0 0 0 2 7 10 10 5 1 0 0 0 0 0 0 0 0 0 0 0 0 0 0 0 0 0 0 0 0 0 0
0 0 0 0 0 0 0 0 0 0 0 0 0 0 0 0 0 0 0 0 0 1 3 4 4 3 1 0 0 0 0 0 0 0 0 0 0 0 0 0 0 0 0 0 0 0 0 0 0
0 0 0 0 0 0 0 0 0 0 0 0 0 0 0 0 0 0 0 0 0 0 0 1 1 1 0 0 0 0 0 0 0 0 0 0 0 0 0 0 0 0 0 0 0 0 0 0 0
0 0 0 0 0 0 0 0 0 0 0 0 0 0 0 0 0 0 0 0 0 0 0 1 1 1 0 0 0 0 0 0 0 0 0 0 0 0 0 0 0 0 0 0 0 0 0 0 0
0 0 0 0 0 0 0 0 0 0 0 0 0 0 0 0 0 0 0 0 0 0 0 0 0 0 0 0 0 0 0 0 0 0 0 0 0 0 0 0 0 0 0 0 0 0 0 0 0
0 0 0 0 0 0 0 0 0 0 0 0 0 0 0 0 0 0 0 0 0 0 0 0 0 0 0 0 0 0 0 0 0 0 0 0 0 0 0 0 0 0 0 0 0 0 0 0 0
0 0 0 0 0 0 0 0 0 0 0 0 0 0 0 0 0 0 0 0 0 0 0 0 0 0 0 0 0 0 0 0 0 0 0 0 0 0 0 0 0 0 0 0 0 0 0 0 0
0 0 0 0 0 0 0 0 0 0 0 0 0 0 0 0 0 0 0 0 0 0 0 0 0 0 0 0 0 0 0 0 0 0 0 0 0 0 0 0 0 0 0 0 0 0 0 0 0
0 0 0 0 0 0 0 0 0 0 0 0 0 0 0 0 0 0 0 0 0 0 0 0 0 0 0 0 0 0 0 0 0 0 0 0 0 0 0 0 0 0 0 0 0 0 0 0 0
0 0 0 0 0 0 0 0 0 0 0 0 0 0 0 0 0 0 0 0 0 0 0 0 0 0 0 0 0 0 0 0 0 0 0 0 0 0 0 0 0 0 0 0 0 0 0 0 0
0 0 0 0 0 0 0 0 0 0 0 0 0 0 0 0 0 0 0 0 0 0 0 0 0 0 0 0 0 0 0 0 0 0 0 0 0 0 0 0 0 0 0 0 0 0 0 0 0
0 0 0 0 0 0 0 0 0 0 0 0 0 0 0 0 0 0 0 0 0 0 0 0 0 0 0 0 0 0 0 0 0 0 0 0 0 0 0 0 0 0 0 0 0 0 0 0 0
0 0 0 0 0 0 0 0 0 0 0 0 0 0 0 0 0 0 0 0 0 0 0 0 0 0 0 0 0 0 0 0 0 0 0 0 0 0 0 0 0 0 0 0 0 0 0 0 0
0 0 0 0 0 0 0 0 0 0 0 0 0 0 0 0 0 0 0 0 0 0 0 0 0 0 0 0 0 0 0 1 0 0 0 0 0 0 0 0 0 0 0 0 0 0 0 0 0
0 0 0 0 0 0 0 0 0 0 0 0 0 0 0 0 0 0 0 0 0 0 0 0 0 0 0 0 0 0 0 0 0 0 0 0 0 0 0 0 0 0 0 0 0 0 0 0 0
0 0 0 0 0 0 0 0 0 0 0 0 0 0 0 0 0 0 0 0 0 0 0 0 0 0 0 0 0 0 0 0 0 0 0 0 0 0 0 0 0 0 0 0 0 0 0 0 0
0 0 0 0 0 0 0 0 0 0 0 0 0 0 0 0 0 0 0 0 0 0 0 0 0 0 0 0 0 0 0 0 0 0 0 0 0 0 0 0 0 0 0 0 0 0 0 0 0
0 0 0 0 0 0 0 0 0 0 0 0 0 0 0 0 0 0 0 0 0 0 0 0 0 0 0 0 0 0 0 0 0 0 0 0 0 0 0 0 0 0 0 0 0 0 0 0 0
0 0 0 0 0 0 0 0 0 0 0 0 0 0 0 0 0 0 0 0 0 0 0 0 0 0 0 0 0 0 0 0 0 0 0 0 0 0 0 0 0 0 0 0 0 0 0 0 0
0 0 0 0 0 0 0 0 0 0 0 0 0 0 0 0 0 0 0 0 0 0 0 0 0 0 0 0 0 0 0 0 0 0 0 0 0 0 0 0 0 0 0 0 0 0 0 0 0
0 0 0 0 0 0 0 0 0 0 0 0 0 0 0 0 0 0 0 0 0 0 0 0 0 0 0 0 0 0 0 0 0 0 0 0 0 0 0 0 0 0 0 0 0 0 0 0 0
0 0 0 0 0 0 0 0 0 0 0 0 0 0 0 0 0 0 0 0 0 0 0 0 0 0 0 0 0 0 0 0 0 0 0 0 0 0 0 0 0 0 0 0 0 0 0 0 0
0 0 0 0 0 0 0 0 0 0 0 0 0 0 0 0 0 0 0 0 0 0 0 0 0 0 0 0 0 0 0 0 0 0 0 0 0 0 0 0 0 0 0 0 0 0 0 0 0
0 0 0 0 0 0 0 0 0 0 0 0 0 0 0 0 0 0 0 0 0 0 0 0 0 0 0 0 0 0 0 0 0 0 0 0 0 0 0 0 0 0 0 0 0 0 0 0 0
0 0 0 0 0 0 0 0 0 0 0 0 0 0 0 0 0 0 0 0 0 0 0 0 0 0 0 0 0 0 0 0 0 0 0 0 0 0 0 0 0 0 0 0 0 0 0 0 0
0 0 0 0 0 0 0 0 0 0 0 0 0 0 0 0 0 0 0 0 0 0 0 0 0 0 0 0 0 0 0 0 0 0 0 0 0 0 0 0 0 0 0 0 0 0 0 0 0
0 0 0 0 0 0 0 0 0 0 0 0 0 0 0 0 0 0 0 0 0 0 0 0 0 0 0 0 0 0 0 0 0 0 0 0 0 0 0 0 0 0 0 0 0 0 0 0 0
0 0 0 0 0 0 0 0 0 0 0 0 0 0 0 0 0 0 0 0 0 0 0 0 0 0 0 0 0 0 0 0 0 0 0 0 0 0 0 0 0 0 0 0 0 0 0 0 0
0 0 0 0 0 0 0 0 0 0 0 0 0 0 0 0 0 0 0 0 0 0 0 0 0 0 0 0 0 0 0 0 0 0 0 0 0 0 0 0 0 0 0 0 0 0 0 0 0
0 0 0 0 0 0 0 0 0 0 0 0 0 0 0 0 0 0 0 0 0 0 0 0 0 0 0 0 0 0 0 0 0 0 0 0 0 0 0 0 0 0 0 0 0 0 0 0 0
Wind_Speed
15 14 8 3 3 4 8 10 6 3 3 8 7 6 7 7 5 6 4 6 8 12 15 13 15 15 14 13 12 11 8 6 5 4 3 3 3 4 4 5 6 7 7 7 8 8 9 9 8
11 13 7 3 3 5 7 10 3 4 7 6 6 6 6 1 9 9 6 6 7 11 14 12 14 14 13 13 12 11 8 6 4 2 2 2 2 3 3 5 6 6 6 6 6 7 6 7 7
12 12 4 4 5 6 6 4 5 8 6 5 5 6 2 5 7 6 6 5 7 8 11 14 15 13 13 12 12 10 8 6 4 2 1 1 2 1 3 5 5 5 5 4 5 5 5 4 4
6 4 4 5 11 9 5 5 6 7 6 5 3 7 5 5 4 5 6 5 7 8 12 14 14 13 12 12 11 10 8 6 4 2 0 2 3 1 4 6 5 4 3 3 3 3 3 3 4
5 4 6 9 13 10 2 3 5 3 6 4 4 5 6 4 6 7 6 3 6 8 13 13 14 12 11 12 12 10 8 6 4 2 1 2 4 2 4 6 5 3 1 2 2 3 4 4 4
4 4 7 10 14 9 2 2 1 5 6 5 3 5 6 5 7 4 6 4 5 8 11 12 12 11 10 11 12 11 9 7 5 3 1 2 4 4 5 6 5 3 3 3 4 5 6 7 7
6 7 10 12 13 8 2 6 2 5 5 6 4 4 6 5 4 3 5 4 5 7 10 11 9 8 9 9 10 10 9 7 5 3 2 1 1 2 3 5 5 5 4 5 6 8 9 9 10
7 6 14 14 14 11 1 4 1 4 6 6 3 3 5 4 6 4 3 3 5 6 7 11 10 9 8 8 10 10 9 8 6 4 3 4 4 6 7 7 8 6 5 6 8 9 10 11 11
9 10 14 13 12 9 2 4 2 2 4 6 6 6 2 7 7 7 4 4 4 5 5 6 10 10 10 9 11 10 8 8 7 6 8 6 5 7 7 8 6 6 6 7 9 11 12 11 11
8 11 17 13 13 9 4 3 1 2 6 7 6 5 2 2 2 2 5 8 8 7 6 5 5 7 7 7 8 6 7 7 7 6 8 6 6 2 4 8 8 7 8 9 11 14 13 10 6
13 16 13 15 14 11 6 3 4 6 7 7 7 7 6 5 3 5 6 6 9 11 8 7 6 6 6 4 4 4 4 5 7 7 5 5 3 2 2 3 4 5 7 5 8 8 6 6 6
19 18 17 16 14 10 5 5 8 9 8 7 8 7 6 6 6 6 5 2 1 8 11 8 7 6 6 6 4 3 3 3 3 3 2 2 2 1 1 1 1 2 2 3 3 3 5 5 5
22 20 18 16 15 11 5 7 10 11 10 10 10 7 6 6 6 5 3 0 1 3 7 8 7 6 6 4 4 3 3 4 4 3 2 2 1 0 1 1 1 2 2 2 2 3 5 5 5
15 16 19 18 15 11 9 10 12 12 10 11 11 8 5 3 2 3 4 2 1 2 4 5 5 5 6 5 4 3 2 3 2 3 3 3 2 2 2 3 3 2 2 2 2 4 4 4 4
17 16 17 18 17 12 9 16 16 12 12 14 11 7 4 3 2 1 3 4 4 4 3 3 2 2 4 6 6 3 2 4 4 4 4 3 2 2 2 2 3 3 3 4 3 4 4 4 5
12 15 19 18 16 14 12 16 11 9 12 10 6 5 5 6 3 3 3 1 1 1 1 2 2 2 3 4 5 4 4 5 5 5 4 5 5 5 4 4 4 4 4 4 4 4 4 5 5
11 18 19 17 16 15 17 14 9 10 10 6 6 6 6 8 7 5 3 2 1 2 4 4 4 4 6 7 7 8 8 8 7 7 6 7 8 8 6 5 5 6 4 4 5 4 4 5 6
13 16 19 18 14 17 19 17 11 10 9 7 7 7 6 9 8 7 4 3 3 4 6 6 7 8 9 8 9 8 9 8 7 6 7 8 7 8 7 5 6 6 4 4 5 6 6 5 6
17 16 18 17 16 17 18 18 14 12 12 10 9 7 6 10 9 6 5 5 5 5 6 7 8 8 7 7 7 6 6 5 5 6 7 8 7 8 7 5 5 6 5 5 6 5 6 5 5
23 21 18 14 17 18 13 13 10 12 13 11 10 8 9 12 9 7 6 6 6 6 7 8 8 9 8 7 6 6 6 5 5 4 6 7 8 7 7 7 5 5 4 6 6 5 4 4 5
25 23 19 16 14 13 7 10 12 14 13 11 9 8 12 16 12 8 7 7 7 7 7 8 9 10 10 9 8 7 5 5 4 4 4 6 7 7 6 7 5 5 5 4 5 5 5 4 5
23 23 21 19 12 7 10 6 11 17 18 15 10 8 13 14 13 10 8 7 7 7 7 8 9 9 8 7 7 7 6 5 4 3 3 5 7 7 6 5 5 5 4 5 5 5 4 5 5
17 16 20 20 13 8 9 6 7 8 10 11 9 9 14 14 14 11 9 8 7 7 7 7 8 9 9 8 8 8 6 5 4 4 5 5 5 6 6 5 4 4 4 5 5 5 5 3 4
16 15 17 14 8 9 9 7 6 8 12 15 11 12 15 14 14 12 9 9 8 7 7 7 9 9 9 9 8 8 8 7 6 6 4 4 3 4 5 5 5 4 3 4 4 4 5 4 5
18 13 10 10 8 7 9 8 8 1 6 12 15 15 15 14 14 13 10 9 8 7 7 7 9 9 8 9 8 8 8 8 7 5 5 4 3 3 4 5 4 4 4 4 4 4 5 6 6
22 19 8 7 9 6 9 9 4 7 8 9 14 15 15 14 13 12 10 9 9 8 8 8 8 9 8 8 8 7 7 5 4 5 4 4 3 3 4 5 5 5 5 6 5 4 5 6 6
15 19 11 2 8 6 6 5 5 6 7 7 12 15 14 14 13 12 11 10 9 8 8 8 9 9 8 7 7 7 6 6 5 5 5 3 3 3 5 5 5 6 6 6 6 4 6 7 6
11 11 6 4 8 6 10 9 9 10 9 9 12 15 15 14 14 13 11 10 9 8 9 8 8 8 8 7 6 6 6 5 5 5 5 4 4 4 5 5 5 6 6 6 6 6 7 8 7
11 11 7 3 1 3 6 3 3 11 11 11 12 15 15 14 14 12 11 10 9 9 8 8 8 8 7 7 6 7 5 5 5 4 4 4 4 5 5 5 6 6 6 6 6 7 9 8 8
7 7 6 3 1 2 4 4 3 8 7 8 11 14 14 13 12 12 11 11 10 9 8 8 8 7 7 7 7 6 5 4 5 4 4 4 4 5 5 5 6 7 7 7 7 9 9 8 9
Wind_Direction
311 306 306 294 268 236 248 256 263 78 30 30 343 301 298 303 33 92 108 82 99 120 133 148 154 158 157 152 147 143 140 132 120 111 105 109 100 93 84 66 53 44 38 27 17 11 14 22 37
300 301 304 261 255 261 241 241 251 63 24 356 304 264 260 343 84 104 99 80 104 123 137 152 153 160 159 156 151 148 145 138 127 112 101 98 111 122 106 87 64 51 38 25 16 10 11 20 32
284 282 276 270 255 260 293 355 31 36 357 309 299 301 347 31 51 75 102 122 113 120 136 141 151 160 161 159 154 151 147 139 130 119 75 52 31 165 138 111 87 69 49 29 15 11 4 3 3
290 291 244 245 261 263 288 332 27 11 318 287 292 301 71 39 49 95 126 149 129 131 123 139 149 158 161 160 157 154 149 143 137 127 93 329 330 270 162 132 116 98 65 32 9 357 353 340 320
264 251 259 260 264 262 267 344 32 319 280 295 318 305 75 66 92 110 128 150 133 126 125 142 149 158 163 163 161 158 155 150 142 135 118 8 9 36 145 142 141 135 92 351 333 315 306 297 289
257 241 250 257 262 253 173 85 341 265 279 291 311 311 91 67 63 88 123 186 129 120 126 139 150 158 167 169 166 164 163 158 151 145 122 50 43 63 122 150 168 197 250 294 304 301 295 288 283
245 255 257 264 275 277 167 98 287 296 313 317 10 317 101 82 82 103 140 183 129 131 133 144 155 161 169 172 171 171 170 167 165 168 151 94 105 122 160 182 203 229 261 286 295 295 294 293 292
249 256 259 258 266 275 196 109 248 282 292 328 335 290 104 129 122 107 128 170 141 148 153 155 161 169 171 175 180 178 176 174 177 186 185 180 205 223 221 213 214 225 254 281 289 291 291 292 292
259 244 243 245 253 264 198 146 240 323 283 270 263 270 119 139 141 145 163 182 168 170 172 168 163 171 174 179 180 178 178 186 190 201 209 206 225 227 216 218 197 207 247 272 280 282 281 282 280
224 233 237 246 263 279 267 158 258 291 286 287 274 244 141 91 82 203 197 185 181 184 191 186 176 163 169 172 157 177 184 185 198 215 196 202 221 214 113 156 195 224 251 267 271 269 273 275 263
225 232 245 251 260 278 292 315 302 277 266 275 296 327 352 353 314 267 243 216 185 180 182 183 187 171 167 152 158 174 181 176 194 217 184 184 191 142 157 176 201 225 237 244 258 255 248 242 244
236 237 239 250 262 271 272 288 282 276 278 291 299 303 305 291 273 263 262 291 182 166 171 179 181 175 177 158 166 175 169 165 175 176 172 164 135 109 250 198 210 226 232 227 247 259 267 264 269
236 240 244 246 252 259 243 249 264 268 276 279 272 266 262 264 267 277 291 329 250 165 155 167 175 176 171 160 151 171 178 163 166 141 116 82 80 106 30 348 293 274 284 287 277 281 291 300 302
245 241 246 252 249 248 248 251 253 257 265 269 266 259 246 264 319 331 342 1 359 118 137 148 164 182 165 149 144 166 178 123 93 107 95 71 46 42 24 345 342 336 325 313 314 313 314 309 307
258 252 247 241 245 241 247 251 246 251 251 253 258 248 184 116 48 346 42 5 21 38 41 84 114 164 160 151 152 156 142 113 91 81 73 66 59 59 37 6 3 354 354 356 356 347 339 328 326
252 241 244 237 234 235 236 252 251 247 246 236 235 239 167 132 135 90 77 48 81 104 104 107 137 174 154 127 123 108 86 81 75 67 65 57 49 53 52 38 20 6 13 12 3 355 349 337 328
238 226 228 231 227 227 232 246 243 245 248 232 227 236 184 139 125 106 101 82 112 144 123 117 134 132 109 94 85 82 73 66 64 58 53 52 44 42 52 45 26 10 20 15 3 0 353 336 327
220 226 228 225 220 226 234 239 236 246 255 236 233 236 180 136 118 107 100 90 68 82 102 104 96 95 94 89 84 77 72 66 62 59 55 53 48 42 38 41 31 15 17 11 9 360 353 340 338
249 241 231 229 220 228 233 238 237 234 242 244 238 233 167 122 116 125 132 118 92 82 94 103 106 104 100 100 98 93 87 77 66 62 61 56 50 47 43 31 29 20 13 18 11 2 348 341 337
243 252 251 239 221 225 233 240 240 232 230 226 227 220 154 125 126 130 125 108 99 93 90 91 92 92 91 93 94 98 98 91 85 70 61 59 52 44 45 36 27 19 15 20 7 5 353 339 345
234 237 244 244 230 219 231 258 249 243 237 228 222 210 146 139 138 137 114 96 87 82 84 90 91 93 96 99 101 104 97 96 86 81 74 65 60 47 40 39 29 18 22 17 2 12 0 337 333
235 231 237 244 228 209 198 247 240 228 219 216 201 177 141 138 137 132 122 109 97 88 85 91 97 102 109 113 110 109 105 103 103 104 100 91 75 58 34 37 31 24 26 19 359 4 346 345 331
234 232 231 239 230 223 198 222 268 249 186 178 178 160 139 138 135 131 127 119 104 91 86 86 85 82 80 80 86 94 96 100 91 79 67 81 79 66 34 29 25 29 28 9 351 350 344 338 329
234 242 238 237 222 225 212 213 259 243 185 176 171 147 139 136 131 125 120 114 106 97 90 88 86 80 76 77 77 84 87 81 75 67 55 54 65 58 32 20 16 22 16 350 337 346 334 316 305
223 219 200 187 191 208 194 205 235 300 112 149 151 145 141 138 135 135 136 132 127 119 113 106 101 93 84 81 76 73 77 76 67 62 56 51 42 35 16 12 3 3 354 341 340 339 316 302 297
215 218 206 166 162 178 193 206 208 124 86 106 136 140 141 142 142 145 145 139 135 133 127 115 107 100 92 87 84 77 73 74 69 61 57 54 46 27 5 1 357 354 347 340 335 320 306 305 298
207 214 241 232 159 159 175 187 126 119 117 127 140 145 150 151 149 151 146 140 139 138 127 119 112 106 101 95 90 82 77 75 67 63 54 41 26 14 4 356 353 343 336 331 327 314 308 304 299
235 206 221 218 162 168 175 186 172 168 164 162 159 158 158 155 154 152 147 141 141 132 125 122 117 111 101 92 90 89 76 71 68 62 48 27 12 7 354 350 344 334 328 326 322 314 308 306 302
198 203 220 248 308 167 150 133 105 153 158 164 167 163 161 159 156 151 146 141 133 126 126 121 116 112 109 106 94 84 72 58 61 59 41 18 4 357 348 340 334 327 323 323 319 314 310 304 306
228 198 203 174 180 320 97 96 69 102 115 144 155 155 154 152 150 147 143 137 135 137 134 129 124 115 108 103 98 91 77 55 48 44 28 11 356 343 334 331 327 322 320 316 310 308 306 309 317